Centralia, IL

5:15 AM CDT on May 20, 2018 (GMT -0500)
Centralia Municipal

Weather History for KENL - March, 2013

Change the Weather History Date:

Wednesday, March 20, 2013

  Actual Average (WUND) Record (WUND)
Temperature  
Mean Temperature 30 °F -  
Max Temperature 34 °F - - (-1)
Min Temperature 27 °F - - (-1)
Degree Days  
Heating Degree Days 34    
Moisture  
Dew Point 19 °F    
Average Humidity 62    
Maximum Humidity 79    
Minimum Humidity 49    
Precipitation  
Precipitation 0.00 in - - ()
Sea Level Pressure  
Sea Level Pressure 30.17 in    
Wind  
Wind Speed 10 mph (WNW)    
Max Wind Speed 23 mph    
Max Gust Speed 30 mph    
Visibility 10 miles    
Events      
Averages and records for this station are not official NWS values.
T = Trace of Precipitation, MM = Missing Value Source: NWS Daily Summary

Daily Weather History Graph

Daily Weather History Graph

Search for Another Location

Airport or City:

Astronomy

Mar. 20, 2013 Rise Set
Actual Time 6:59 AM CDT 7:08 PM CDT
Civil Twilight 6:33 AM CDT 7:35 PM CDT
Nautical Twilight 6:02 AM CDT 8:05 PM CDT
Astronomical Twilight 5:30 AM CDT 8:37 PM CDT
Moon 12:47 PM CDT 2:35 AM CDT
Length of Visible Light 13h 02m
Length of Day
12h 09m
First Quarter, 59% of the Moon is Illuminated
Mar 20
First Quarter
Mar 27
Full
Apr 2
Last Quarter
Apr 10
New
Apr 18
First Quarter

Hourly Weather History & Observations

Time (CDT) Temp. Windchill Dew Point Humidity Pressure Visibility Wind Dir Wind Speed Gust Speed Precip Events Conditions
12:15 AM 32.4 °F 26.9 °F 24.8 °F 74% 30.17 in 10.0 mi WSW 5.8 mph - N/A   Clear
12:35 AM 32.5 °F 27.1 °F 24.1 °F 71% 30.17 in 10.0 mi SW 5.8 mph - N/A   Clear
12:55 AM 31.8 °F 26.2 °F 23.9 °F 73% 30.17 in 10.0 mi WSW 5.8 mph - N/A   Clear
1:15 AM 32.2 °F 26.7 °F 24.3 °F 73% 30.16 in 10.0 mi WSW 5.8 mph - N/A   Clear
1:35 AM 32.9 °F 28.5 °F 26.1 °F 76% 30.17 in 10.0 mi WSW 4.6 mph - N/A   Clear
1:55 AM 32.5 °F 27.1 °F 24.1 °F 71% 30.17 in 10.0 mi WSW 5.8 mph - N/A   Clear
2:15 AM 32.0 °F 26.4 °F 23.9 °F 72% 30.16 in 10.0 mi West 5.8 mph - N/A   Clear
2:35 AM 32.0 °F 26.4 °F 24.3 °F 73% 30.16 in 10.0 mi WSW 5.8 mph - N/A   Clear
2:55 AM 32.0 °F 25.6 °F 24.4 °F 74% 30.15 in 10.0 mi WSW 6.9 mph - N/A   Clear
3:15 AM 32.0 °F 25.6 °F 24.6 °F 74% 30.14 in 10.0 mi WSW 6.9 mph - N/A   Clear
3:35 AM 32.0 °F 24.8 °F 25.2 °F 76% 30.13 in 10.0 mi SW 8.1 mph - N/A   Clear
3:55 AM 32.0 °F 24.8 °F 25.3 °F 76% 30.13 in 10.0 mi SW 8.1 mph - N/A   Clear
4:15 AM 32.2 °F 25.8 °F 25.7 °F 77% 30.13 in 10.0 mi WSW 6.9 mph - N/A   Clear
4:35 AM 32.0 °F 25.6 °F 26.1 °F 79% 30.13 in 10.0 mi WSW 6.9 mph - N/A   Clear
4:55 AM 32.9 °F 25.3 °F 27.0 °F 79% 30.14 in 10.0 mi West 9.2 mph - N/A   Clear
5:15 AM 34.0 °F 26.0 °F 28.0 °F 79% 30.15 in 10.0 mi West 10.4 mph - N/A   Clear
5:35 AM 34.5 °F 26.7 °F 28.0 °F 77% 30.16 in 10.0 mi WNW 10.4 mph - N/A   Clear
5:55 AM 33.8 °F 25.8 °F 27.5 °F 78% 30.16 in 10.0 mi NW 10.4 mph - N/A   Clear
6:15 AM 32.9 °F 24.7 °F 24.4 °F 71% 30.17 in 10.0 mi NW 10.4 mph - N/A   Clear
6:35 AM 32.0 °F 24.8 °F 23.0 °F 69% 30.17 in 10.0 mi NW 8.1 mph - N/A   Clear
6:55 AM 32.0 °F 24.2 °F 21.4 °F 65% 30.18 in 10.0 mi NNW 9.2 mph - N/A   Clear
7:15 AM 31.6 °F 23.7 °F 21.4 °F 66% 30.18 in 10.0 mi NW 9.2 mph - N/A   Clear
7:35 AM 31.6 °F 21.2 °F 21.2 °F 65% 30.19 in 10.0 mi NW 15.0 mph 19.6 mph N/A   Clear
7:55 AM 31.5 °F 20.1 °F 21.6 °F 67% 30.20 in 10.0 mi NW 17.3 mph 24.2 mph N/A   Clear
8:15 AM 31.6 °F 22.1 °F 22.3 °F 68% 30.20 in 10.0 mi NW 12.7 mph 21.9 mph N/A   Clear
8:35 AM 31.5 °F 20.1 °F 21.6 °F 67% 30.21 in 10.0 mi NW 17.3 mph 23.0 mph N/A   Mostly Cloudy
8:55 AM 31.1 °F 20.1 °F 21.7 °F 68% 30.22 in 10.0 mi NW 16.1 mph 24.2 mph N/A   Mostly Cloudy
9:15 AM 31.3 °F 19.5 °F 17.2 °F 56% 30.22 in 10.0 mi NW 18.4 mph 26.5 mph N/A   Scattered Clouds
9:35 AM 32.0 °F 19.2 °F 17.6 °F 55% 30.23 in 10.0 mi WNW 23.0 mph 28.8 mph N/A   Clear
9:55 AM 30.6 °F 18.6 °F 18.3 °F 60% 30.23 in 10.0 mi WNW 18.4 mph 26.5 mph N/A   Scattered Clouds
10:15 AM 30.4 °F 17.3 °F 18.0 °F 60% 30.24 in 10.0 mi WNW 21.9 mph 27.6 mph N/A   Clear
10:35 AM 30.2 °F 17.1 °F 17.6 °F 60% 30.23 in 10.0 mi West 21.9 mph 27.6 mph N/A   Scattered Clouds
10:55 AM 30.9 °F 20.2 °F 18.7 °F 61% 30.24 in 10.0 mi NW 15.0 mph 26.5 mph N/A   Scattered Clouds
11:15 AM 30.4 °F 18.0 °F 18.3 °F 61% 30.23 in 10.0 mi West 19.6 mph 25.3 mph N/A   Mostly Cloudy
11:35 AM 30.6 °F 19.0 °F 18.9 °F 62% 30.23 in 10.0 mi WNW 17.3 mph 23.0 mph N/A   Overcast
11:55 AM 30.7 °F 19.2 °F 19.0 °F 62% 30.24 in 10.0 mi WNW 17.3 mph 21.9 mph N/A   Overcast
12:15 PM 30.6 °F 19.0 °F 18.0 °F 60% 30.23 in 10.0 mi NW 17.3 mph 29.9 mph N/A   Overcast
12:35 PM 31.1 °F 19.7 °F 18.3 °F 59% 30.23 in 10.0 mi West 17.3 mph 25.3 mph N/A   Overcast
12:55 PM 31.1 °F 19.7 °F 18.0 °F 58% 30.22 in 10.0 mi NW 17.3 mph 27.6 mph N/A   Mostly Cloudy
1:35 PM 31.8 °F 21.0 °F 18.5 °F 58% 30.21 in 10.0 mi WNW 16.1 mph 19.6 mph N/A   Overcast
1:55 PM 31.3 °F 18.2 °F 16.7 °F 55% 30.20 in 10.0 mi WNW 23.0 mph 28.8 mph N/A   Overcast
2:15 PM 32.0 °F 19.8 °F 17.4 °F 55% 30.19 in 10.0 mi NW 20.7 mph 26.5 mph N/A   Overcast
2:35 PM 31.5 °F 19.8 °F 16.2 °F 53% 30.18 in 10.0 mi WNW 18.4 mph 27.6 mph N/A   Mostly Cloudy
2:55 PM 31.8 °F 20.6 °F 16.2 °F 52% 30.17 in 10.0 mi West 17.3 mph 24.2 mph N/A   Mostly Cloudy
3:15 PM 32.9 °F 22.8 °F 17.2 °F 53% 30.17 in 10.0 mi NW 15.0 mph 20.7 mph N/A   Overcast
3:35 PM 32.0 °F 21.2 °F 15.8 °F 51% 30.17 in 10.0 mi WNW 16.1 mph 23.0 mph N/A   Overcast
3:55 PM 33.3 °F 21.8 °F 16.7 °F 51% 30.16 in 10.0 mi NW 19.6 mph 25.3 mph N/A   Mostly Cloudy
4:15 PM 32.5 °F 21.9 °F 16.2 °F 51% 30.15 in 10.0 mi WNW 16.1 mph 26.5 mph N/A   Mostly Cloudy
4:35 PM 32.2 °F 20.4 °F 16.0 °F 51% 30.15 in 10.0 mi WNW 19.6 mph 24.2 mph N/A   Mostly Cloudy
4:55 PM 32.0 °F 21.2 °F 14.9 °F 49% 30.14 in 10.0 mi NW 16.1 mph 23.0 mph N/A   Mostly Cloudy
5:15 PM 32.0 °F 21.2 °F 14.9 °F 49% 30.15 in 10.0 mi NW 16.1 mph 21.9 mph N/A   Mostly Cloudy
5:35 PM 32.0 °F 21.2 °F 16.2 °F 52% 30.15 in 10.0 mi WNW 16.1 mph - N/A   Overcast
5:55 PM 32.0 °F 20.8 °F 14.9 °F 49% 30.14 in 10.0 mi WNW 17.3 mph - N/A   Mostly Cloudy
6:15 PM 32.0 °F 22.5 °F 14.9 °F 49% 30.14 in 10.0 mi WNW 12.7 mph 21.9 mph N/A   Overcast
6:35 PM 32.0 °F 24.2 °F 15.3 °F 50% 30.14 in 10.0 mi NW 9.2 mph - N/A   Mostly Cloudy
6:55 PM 31.5 °F 21.4 °F 14.9 °F 50% 30.14 in 10.0 mi NW 13.8 mph 18.4 mph N/A   Mostly Cloudy
7:15 PM 31.1 °F 20.5 °F 14.5 °F 50% 30.13 in 10.0 mi WNW 15.0 mph 18.4 mph N/A   Mostly Cloudy
7:35 PM 30.7 °F 20.9 °F 13.8 °F 50% 30.13 in 10.0 mi NW 12.7 mph 19.6 mph N/A   Clear
7:55 PM 30.4 °F 22.2 °F 13.8 °F 50% 30.13 in 10.0 mi NW 9.2 mph - N/A   Clear
8:15 PM 30.2 °F 20.2 °F 13.8 °F 51% 30.13 in 10.0 mi NW 12.7 mph - N/A   Clear
8:35 PM 30.0 °F 21.7 °F 14.4 °F 52% 30.13 in 10.0 mi NW 9.2 mph - N/A   Clear
8:55 PM 29.8 °F 21.5 °F 14.5 °F 53% 30.13 in 10.0 mi NW 9.2 mph - N/A   Clear
9:15 PM 29.5 °F 22.5 °F 14.5 °F 54% 30.12 in 10.0 mi NW 6.9 mph - N/A   Clear
9:35 PM 29.3 °F 22.3 °F 14.4 °F 54% 30.12 in 10.0 mi WNW 6.9 mph - N/A   Clear
9:55 PM 28.6 °F 21.5 °F 15.6 °F 58% 30.12 in 10.0 mi WNW 6.9 mph - N/A   Clear
10:15 PM 28.6 °F 22.4 °F 15.1 °F 57% 30.11 in 10.0 mi WNW 5.8 mph - N/A   Clear
10:35 PM 28.0 °F 22.8 °F 15.8 °F 60% 30.11 in 10.0 mi NW 4.6 mph - N/A   Clear
10:55 PM 27.9 °F 21.5 °F 15.8 °F 61% 30.11 in 10.0 mi NW 5.8 mph - N/A   Clear
11:15 PM 27.9 °F 21.5 °F 15.8 °F 61% 30.11 in 10.0 mi NW 5.8 mph - N/A   Clear
11:35 PM 28.0 °F 21.7 °F 15.1 °F 58% 30.10 in 10.0 mi NW 5.8 mph - N/A   Clear
11:55 PM 27.7 °F 21.3 °F 15.3 °F 60% 30.10 in 10.0 mi WNW 5.8 mph - N/A   Clear